THOR ABLESTAR DEB, 38521

Orbit data source: Space-Track

THOR ABLESTAR DEB, 38521 is space debris in LEO originally from a launch on Sat, 28 Sep 1963 UTC launched from the Air Force Western Test Range (AFWTR). Debris objects in space refer to the collection of defunct objects orbiting the Earth. Examples of debris include non-operational satellites, rocket bodies, and fragments generated from explosions, collisions, or faulty payload assembly.

Loading next visibility...
Identifier
38521, 1963-038Q
Orbit
LEO
Country
Flag of USUS
Related business
Manufacturer
Unknown
Mission
Spacecraft
Bus & Motor
Unknown
Mass
Unknown
Launch date (UTC)
1963-09-28 (62 years ago)
Launch vehicle
Unknown
Launch site
Air Force Western Test Range (AFWTR)
Object type
Payload
Rocket body
Debris
Shape & HBR
Unknown shape, 0.1 m
Radar Cross Section
Small (<0.1 m²)

Expand to show TLE details & history
Last TLE update: 17 hours ago

TLE from 17 hours ago
0 THOR ABLESTAR DEB
1 38521U 63038Q   25355.20883993  .00000075  00000-0  10904-3 0  9990
2 38521  89.9703 333.6287 0042114 134.0912 238.4142 13.45396923611570
Epoch: 2025-12-21T05:00Z
TLE epoch observation values (Epoch: 2025-12-21T05:00:43.769Z)
Latitude
12.05226°
Longitude
168.42806°
Altitude
1,108.006 km
Speed
7.291 km/s
True Right ascension
22h 14m 32s
True Declination
11° 59' 08"
Sunlit
Object was in daylight at epoch
Visualization orbit readout
Latitude
Unknown
Longitude
Unknown
Altitude
Unknown
Speed
Unknown
Apparent Right ascension
Unknown
Apparent Declination
Unknown
Sunlit
N/A
Visualization observer readout
Local Sidereal Time
20:56:51
Azimuth
Unknown
Elevation
Unknown
Doppler factor
Unknown
Orbital elements
Apogee altitude
1,117.735 km
Perigee altitude
1,054.863 km
Semi-major axis
7,464.436 km
Eccentricity
0.00421
Inclination
89.9703°
RAAN
333.6287°
Arg. of periapsis
134.0912°
True anomaly
238.00424°
Mean anomaly
238.4142°
Eccentric anomaly
238.2091°
Mean motion
3.36549 °/min
Orbital period
106.97 mins
BSTAR
0.00010904
Loading maneuver chart data...
Computing Atmospheric mass density...

Documentation

Showing up to 5 results
|